Wind_Speed
32 32 33 33 32 33 34 35 37 36 35 34 34 34 35 36 35 35 35 34 33 33 35 35 36 37 38 38 39 40 41 42 43 44 46 48 50 51 51 51 51 51 52 52
33 32 33 33 32 32 33 34 35 35 34 34 35 35 35 36 35 36 36 35 35 35 35 35 36 36 37 37 38 39 40 42 43 44 45 46 48 49 50 51 51 51 51 51
33 32 32 32 31 32 33 33 35 35 34 34 34 34 35 35 36 37 37 36 36 36 36 36 36 36 36 37 38 39 40 42 43 43 43 44 46 47 48 49 50 50 50 50
33 32 33 32 32 32 33 33 34 34 34 34 33 33 34 34 35 36 37 37 36 36 36 36 36 36 37 38 38 39 40 40 41 42 43 44 45 46 47 48 48 48 49 49
33 33 33 32 32 33 33 32 32 33 33 33 32 32 32 32 33 34 35 36 35 35 35 35 35 36 37 38 39 40 38 38 40 41 42 43 44 46 47 47 47 47 47 47
34 35 34 32 32 32 33 33 32 32 32 31 32 31 30 30 31 32 34 34 35 35 34 34 35 36 37 38 39 40 40 40 40 40 40 41 42 43 44 45 46 46 46 47
33 34 34 33 32 32 32 33 32 32 31 31 31 31 31 31 31 32 33 33 34 35 35 35 35 36 37 38 38 38 39 39 40 39 40 40 41 41 42 43 44 44 45 45
33 34 34 33 33 32 32 32 32 31 31 31 31 32 32 31 31 31 32 32 32 33 33 34 35 36 37 37 38 39 39 39 39 39 39 40 39 39 40 41 42 43 44 44
32 32 32 32 33 32 32 31 31 31 30 30 30 30 30 30 30 30 30 31 31 32 33 34 34 34 35 36 36 37 38 38 39 39 39 39 39 39 39 39 39 40 41 41
31 30 31 32 32 32 33 32 32 31 31 31 31 31 31 31 31 31 31 32 31 31 32 33 34 34 34 35 36 35 35 35 36 37 37 37 37 37 37 37 38 38 39 40
30 29 30 31 31 32 32 32 33 32 32 31 31 31 31 32 32 31 31 31 32 32 32 33 34 34 34 34 34 34 34 35 35 36 35 35 35 35 35 36 36 36 37 39
30 30 30 31 31 31 31 32 32 32 31 31 31 30 31 32 32 32 32 32 31 31 32 32 33 33 33 33 34 34 34 34 35 35 35 34 34 34 34 34 35 36 37 38
30 31 31 31 30 30 31 31 31 31 31 31 31 31 31 32 32 32 32 32 32 32 31 32 32 33 33 34 33 33 33 33 33 34 34 33 32 33 33 34 34 35 36 37
30 30 30 30 30 30 30 31 30 30 30 31 31 30 30 31 31 32 32 32 32 32 32 32 32 33 33 33 33 32 31 31 32 32 32 31 31 32 32 33 33 33 34 35
30 30 29 29 29 30 30 30 30 30 30 30 30 30 30 30 31 31 31 31 31 31 31 31 32 32 32 31 31 30 30 30 31 31 30 30 30 30 31 31 32 31 32 32
29 29 29 29 29 29 29 30 30 30 30 30 31 31 31 31 31 31 31 31 31 31 30 30 30 31 31 30 30 29 29 30 30 30 29 29 30 30 30 30 30 30 30 31
28 28 28 28 29 29 30 30 30 30 31 31 31 31 31 31 31 30 30 30 30 29 29 29 29 29 29 29 29 29 29 29 29 29 28 28 28 28 28 29 29 29 29 30
27 27 28 28 29 30 30 31 30 30 30 30 31 31 31 31 30 30 29 29 28 28 28 28 28 28 28 29 29 29 29 28 28 28 27 27 26 27 27 28 28 29 29 29
27 27 28 28 29 30 30 30 30 30 30 30 30 30 30 29 29 29 28 28 28 28 28 28 28 28 28 28 28 28 27 27 26 26 26 25 26 26 26 26 26 27 28 28
28 28 29 29 30 30 30 30 29 29 29 29 29 29 29 28 28 27 27 27 27 27 27 27 27 27 27 27 27 27 26 26 25 24 24 24 23 23 23 23 23 24 25 26
28 28 29 29 29 29 30 30 29 29 29 29 28 28 28 27 26 26 25 25 25 25 25 26 26 26 26 25 25 24 24 24 23 23 22 22 21 21 21 21 21 22 23 24
28 28 28 29 29 29 30 29 29 28 28 28 28 28 28 27 26 25 25 24 23 23 24 25 25 25 24 24 24 23 23 22 22 21 21 20 19 19 19 19 20 21 22 23
28 28 29 29 29 29 29 29 28 27 27 28 28 28 27 27 26 25 24 24 24 24 24 24 24 24 23 23 22 22 22 21 20 20 20 20 20 20 20 20 20 21 21 22
29 29 29 29 29 29 29 28 28 27 28 28 28 27 27 26 25 24 24 24 24 24 24 24 24 23 22 22 21 21 21 20 20 20 20 20 21 21 21 21 20 20 21 21
29 29 29 29 29 29 28 28 28 27 27 27 27 26 25 25 24 24 23 23 23 23 23 23 23 22 22 22 21 21 21 21 21 21 21 21 20 21 20 20 20 21 21 21
29 29 29 29 28 28 27 27 27 26 26 26 25 25 24 24 24 23 23 23 23 23 23 23 23 23 23 22 22 22 22 21 21 21 21 21 21 21 20 20 20 21 21 21
28 28 27 27 27 27 26 26 25 25 24 24 24 24 24 24 23 23 23 23 23 23 23 23 23 23 23 23 23 23 23 22 22 22 22 22 21 21 21 21 21 20 20 20
Wind_Direction
294 294 293 293 293 292 289 290 291 293 292 293 292 289 287 287 286 286 286 283 282 280 277 275 275 274 273 272 272 271 270 269 268 267 266 265 265 264 264 263 263 262 262 262
293 293 292 291 292 294 294 292 291 291 292 293 291 289 287 286 285 285 285 284 282 282 280 277 276 276 275 273 273 273 272 271 270 268 268 267 266 265 265 264 263 263 263 263
294 294 293 293 295 295 295 293 291 291 293 292 292 290 288 286 285 285 284 283 282 281 279 277 278 278 276 276 275 274 274 272 271 270 269 268 267 267 266 265 264 263 263 263
295 294 295 300 297 296 296 294 292 291 290 292 293 292 290 288 285 285 284 283 283 282 280 278 278 278 279 278 277 276 276 274 272 271 270 269 268 267 266 266 265 263 263 263
293 295 297 299 300 300 298 297 295 293 291 292 294 293 291 289 288 286 284 284 285 284 281 281 280 280 281 282 280 279 279 277 274 272 271 271 270 268 267 266 265 263 262 263
291 293 296 300 301 300 299 298 298 295 294 293 293 292 291 289 288 288 286 286 285 284 283 283 283 283 283 285 283 282 280 277 276 275 273 272 271 269 268 266 264 263 262 262
290 292 294 298 300 301 300 301 299 298 295 293 291 291 290 288 288 289 288 286 286 285 283 284 285 285 285 286 285 284 282 280 279 277 275 274 272 270 269 267 264 262 262 262
291 292 295 296 297 300 301 301 300 298 295 292 290 291 290 289 290 291 291 289 288 287 285 285 286 287 288 287 286 285 284 282 279 277 276 276 274 273 271 269 265 264 263 263
291 293 294 295 296 298 300 301 301 298 296 294 292 292 292 291 291 292 293 292 290 289 287 286 288 290 291 291 290 287 285 283 281 279 277 277 277 276 274 271 268 265 264 263
292 293 293 293 294 296 299 300 300 299 297 296 294 293 293 292 293 293 293 293 292 291 289 288 289 291 292 293 293 292 289 287 285 283 281 280 278 277 275 272 270 267 265 264
291 293 294 294 295 296 298 299 300 300 298 297 296 294 293 293 293 293 293 293 292 292 291 290 292 293 294 293 293 292 291 290 288 286 284 281 280 278 276 272 270 268 266 264
291 292 293 295 296 297 297 298 299 299 298 298 297 296 295 294 294 293 293 293 293 292 291 291 292 293 293 293 293 293 292 290 289 285 283 281 279 278 277 275 272 270 268 266
292 293 294 296 296 297 297 298 298 298 297 298 298 298 297 295 295 293 292 292 292 292 291 291 292 293 294 295 295 295 293 291 290 286 283 280 279 279 278 275 273 271 269 267
292 294 296 297 297 297 298 298 299 299 299 299 299 298 299 299 297 296 294 293 293 292 292 292 293 293 294 295 296 295 292 291 290 288 284 281 280 279 277 274 272 270 269 268
294 295 296 297 297 297 297 297 299 299 299 299 299 299 300 300 299 298 295 293 293 293 292 292 292 293 294 295 297 295 293 291 289 288 285 280 279 279 276 272 270 268 267 266
295 296 297 298 298 298 298 298 299 299 299 300 300 299 299 300 299 297 296 295 294 294 294 294 293 293 294 296 298 297 295 294 292 289 286 282 279 277 276 273 269 266 266 264
295 295 296 297 298 298 297 298 298 299 300 300 301 301 300 299 298 297 297 296 295 296 296 296 295 296 297 298 298 298 298 298 296 292 288 284 280 277 275 272 269 267 266 264
294 295 297 298 299 298 298 299 299 299 301 301 302 302 302 300 299 298 298 297 296 295 297 297 298 298 299 299 299 299 299 299 298 295 292 288 284 279 276 274 270 267 266 265
295 296 297 298 299 300 301 301 300 301 302 303 303 304 304 302 301 300 300 298 297 297 298 299 299 299 300 300 300 300 299 299 298 296 293 290 287 284 280 277 273 268 265 264
295 297 298 299 300 302 303 303 302 301 302 303 304 305 306 305 303 302 301 300 299 299 298 299 300 300 301 302 302 301 300 299 298 297 294 292 290 288 284 280 276 272 269 266
296 297 299 300 301 303 304 303 302 302 301 302 304 305 306 306 306 304 303 303 302 302 302 303 304 304 305 306 306 304 302 300 299 298 297 294 293 291 289 285 281 276 273 270
296 297 299 300 301 303 304 304 303 302 301 302 304 305 306 306 305 304 303 303 303 304 305 306 307 307 307 307 307 306 304 302 301 299 298 296 295 294 293 290 287 283 279 275
296 297 299 301 302 303 303 302 302 301 301 302 303 304 305 304 303 302 302 302 302 303 305 307 309 309 310 310 309 308 308 306 303 301 298 296 295 294 294 293 291 288 284 279
297 298 299 301 302 302 302 302 301 300 301 301 302 303 304 303 303 302 302 302 302 303 304 306 308 309 309 309 309 309 309 308 307 304 301 299 298 296 295 293 292 290 286 282
300 299 299 301 302 302 302 302 301 301 301 301 301 302 302 302 302 302 302 303 303 304 305 306 307 308 308 307 308 308 308 307 307 305 303 301 299 298 296 294 292 291 288 285
300 299 300 300 300 301 302 302 301 301 301 301 301 302 302 302 301 301 301 302 303 304 305 306 306 307 307 306 306 306 306 306 305 305 303 301 299 298 297 295 294 292 289 286
301 300 300 300 300 301 301 301 300 301 302 302 302 302 303 303 303 302 301 302 303 304 305 306 306 307 306 306 306 306 305 304 304 303 302 300 298 297 296 296 295 293 291 287
Height
5586 5583 5579 5577 5574 5571 5566 5563 5559 5557 5554 5552 5548 5544 5541 5538 5535 5533 5531 5528 5526 5524 5524 5523 5522 5521 5520 5519 5519 5518 5517 5516 5516 5516 5515 5515 5516 5516 5517 5518 5519 5520 5520 5522
5578 5574 5570 5567 5565 5561 5557 5554 5550 5547 5545 5542 5537 5534 5531 5528 5526 5524 5521 5519 5516 5514 5513 5512 5512 5511 5509 5508 5507 5506 5505 5504 5503 5502 5501 5501 5502 5502 5502 5503 5504 5504 5505 5506
5568 5565 5561 5559 5557 5553 5549 5545 5542 5538 5537 5532 5528 5525 5521 5519 5516 5513 5511 5509 5506 5505 5503 5502 5501 5499 5498 5496 5495 5494 5492 5491 5489 5489 5488 5488 5488 5487 5487 5488 5489 5489 5490 5491
5558 5557 5552 5554 5548 5544 5540 5537 5533 5529 5526 5522 5519 5515 5512 5509 5506 5504 5501 5499 5497 5495 5493 5492 5490 5488 5486 5485 5483 5481 5479 5478 5476 5475 5475 5474 5473 5473 5473 5473 5474 5475 5476 5477
5549 5546 5544 5544 5539 5534 5531 5528 5524 5520 5516 5513 5510 5507 5504 5500 5497 5494 5492 5489 5487 5485 5483 5482 5480 5478 5476 5473 5471 5469 5467 5465 5463 5462 5461 5460 5459 5459 5459 5459 5460 5460 5461 5463
5541 5537 5535 5536 5531 5525 5522 5519 5516 5511 5507 5504 5500 5498 5497 5492 5489 5486 5483 5480 5478 5476 5474 5472 5469 5467 5465 5462 5459 5457 5454 5453 5451 5449 5448 5447 5446 5445 5444 5444 5445 5446 5447 5448
5532 5528 5527 5526 5521 5517 5515 5512 5506 5502 5499 5495 5492 5489 5487 5483 5480 5477 5474 5472 5469 5466 5464 5462 5459 5457 5455 5451 5448 5445 5442 5440 5438 5436 5435 5433 5432 5431 5430 5431 5431 5432 5433 5435
5523 5520 5521 5516 5512 5509 5506 5501 5497 5493 5490 5486 5483 5480 5477 5474 5471 5468 5465 5463 5460 5457 5455 5452 5449 5447 5444 5440 5437 5434 5431 5428 5426 5424 5422 5420 5419 5418 5418 5417 5418 5419 5420 5421
5515 5515 5511 5507 5503 5500 5496 5493 5489 5485 5482 5478 5475 5472 5469 5466 5463 5460 5457 5454 5451 5449 5446 5443 5440 5436 5433 5429 5426 5422 5419 5417 5414 5411 5409 5408 5406 5405 5405 5404 5405 5406 5407 5408
5506 5505 5501 5498 5494 5491 5488 5484 5480 5477 5474 5470 5467 5464 5461 5458 5455 5452 5449 5446 5442 5439 5436 5433 5430 5426 5422 5418 5415 5411 5408 5406 5403 5400 5398 5396 5395 5394 5393 5393 5393 5393 5394 5395
5497 5495 5492 5489 5485 5482 5479 5475 5472 5469 5465 5462 5459 5456 5452 5449 5446 5443 5440 5437 5433 5430 5427 5423 5420 5417 5413 5409 5405 5401 5398 5395 5392 5390 5387 5385 5384 5383 5382 5382 5381 5382 5382 5383
5489 5486 5484 5481 5477 5474 5470 5467 5464 5460 5457 5453 5450 5447 5444 5440 5437 5434 5431 5427 5424 5421 5418 5414 5411 5407 5403 5399 5395 5392 5388 5385 5382 5379 5377 5375 5373 5372 5371 5371 5370 5370 5370 5371
5480 5477 5474 5472 5468 5465 5462 5458 5455 5452 5448 5445 5442 5438 5435 5431 5428 5424 5421 5418 5415 5412 5408 5405 5401 5398 5394 5390 5386 5382 5378 5375 5372 5369 5367 5365 5363 5362 5361 5360 5359 5359 5358 5358
5470 5468 5465 5462 5460 5456 5453 5450 5446 5443 5440 5436 5433 5429 5426 5422 5419 5415 5412 5409 5405 5402 5399 5396 5392 5389 5385 5381 5377 5373 5369 5366 5362 5359 5357 5355 5353 5351 5351 5350 5349 5348 5347 5347
5462 5459 5457 5454 5451 5448 5445 5441 5438 5435 5431 5428 5424 5421 5417 5414 5410 5406 5402 5399 5396 5393 5390 5387 5383 5380 5376 5372 5367 5364 5360 5356 5353 5350 5347 5345 5343 5341 5340 5339 5338 5338 5337 5337
5454 5451 5448 5445 5442 5439 5436 5433 5430 5426 5423 5419 5416 5412 5408 5405 5401 5397 5393 5390 5387 5384 5381 5377 5374 5370 5367 5363 5359 5355 5351 5347 5343 5340 5338 5335 5333 5332 5330 5329 5328 5328 5328 5328
5445 5443 5440 5437 5434 5431 5428 5424 5421 5418 5414 5410 5407 5403 5399 5396 5392 5389 5385 5381 5378 5375 5372 5368 5365 5361 5358 5354 5350 5346 5342 5338 5334 5331 5328 5326 5324 5322 5321 5320 5319 5318 5318 5318
5437 5434 5432 5429 5426 5422 5419 5416 5412 5409 5405 5402 5398 5394 5391 5387 5384 5380 5377 5373 5370 5367 5363 5360 5356 5353 5349 5345 5341 5337 5333 5329 5326 5322 5319 5317 5315 5313 5312 5311 5310 5310 5309 5309
5428 5426 5423 5420 5417 5414 5410 5407 5403 5400 5397 5393 5390 5386 5382 5379 5375 5372 5368 5365 5362 5359 5355 5352 5348 5345 5341 5337 5333 5328 5325 5321 5318 5314 5312 5309 5307 5305 5304 5303 5302 5301 5301 5301
5420 5417 5414 5411 5408 5405 5401 5398 5395 5392 5388 5385 5382 5378 5374 5371 5367 5364 5360 5357 5354 5350 5347 5344 5340 5337 5333 5329 5325 5321 5317 5314 5311 5307 5304 5302 5299 5297 5296 5295 5294 5294 5293 5294
5412 5409 5406 5403 5399 5396 5393 5389 5386 5383 5380 5377 5374 5370 5367 5363 5360 5356 5353 5350 5347 5343 5340 5336 5333 5329 5325 5321 5317 5314 5310 5307 5304 5300 5298 5295 5293 5291 5289 5288 5287 5286 5286 5285
5403 5400 5397 5394 5391 5388 5384 5381 5378 5375 5372 5369 5366 5363 5359 5356 5352 5349 5346 5343 5340 5336 5333 5330 5326 5322 5318 5315 5311 5307 5304 5300 5297 5294 5292 5289 5287 5285 5283 5281 5280 5279 5278 5277
5394 5391 5388 5385 5382 5379 5376 5373 5370 5367 5364 5361 5358 5355 5352 5348 5345 5342 5339 5336 5333 5330 5326 5323 5319 5316 5312 5308 5305 5301 5298 5295 5292 5289 5286 5284 5282 5280 5278 5276 5274 5272 5271 5270
5386 5383 5380 5377 5374 5371 5368 5365 5361 5359 5356 5353 5350 5347 5344 5341 5338 5335 5332 5329 5326 5323 5320 5316 5313 5309 5306 5303 5299 5296 5293 5290 5287 5284 5281 5278 5276 5274 5272 5270 5268 5266 5264 5263
5377 5374 5371 5368 5366 5362 5359 5356 5353 5351 5348 5345 5342 5339 5336 5334 5331 5328 5325 5322 5319 5316 5313 5310 5307 5304 5300 5297 5294 5290 5287 5284 5281 5278 5276 5273 5271 5268 5266 5264 5262 5260 5258 5256
5368 5366 5363 5360 5357 5354 5351 5348 5346 5343 5340 5337 5335 5332 5329 5326 5324 5321 5318 5315 5312 5310 5307 5304 5300 5297 5294 5291 5288 5284 5281 5278 5276 5273 5270 5267 5265 5262 5260 5257 5255 5253 5251 5249
5360 5357 5354 5352 5349 5346 5343 5341 5338 5336 5333 5330 5328 5325 5322 5320 5317 5314 5311 5308 5306 5303 5300 5297 5294 5291 5287 5285 5282 5279 5275 5272 5269 5266 5263 5261 5258 5256 5253 5251 5249 5247 5244 5242